Tracking 28514 objects as of 24-Feb-2024
HD Live streaming from Space Station
objects crossing your sky now

PROBA 1

Track PROBA 1 now!
10-day predictions
PROBA 1 is classified as:


NORAD ID: 26958
Int'l Code: 2001-049B
Perigee: 529.7 km
Apogee: 617.7 km
Inclination: 97.9 °
Period: 96.0 minutes
Semi major axis: 6944 km
RCS: Unknown
Launch date: October 22, 2001
Source: European Space Agency (ESA)
Launch site: SRIHARIKOTA (SRI)

First a technology demonstration, then extended for one year for remote sensing; looks like a washing machine.
Your satellite tracking list
Your tracking list is empty




NASA's NSSDC Master Catalog

Two Line Element Set (TLE):
1 26958U 01049B   24054.84030180  .00002968  00000-0  23327-3 0  9998
2 26958  97.9082  29.3497 0063314  87.6185 273.2285 15.00106836216742
Source of the keplerian elements: AFSPC